Date,Time,Wetness (Wet Dry or Ice),Wind Speed (m/s),Temperature (C),Humidity (%),Pressure (mb),Radiation (W/m^2)
2020-10-08,23:30:00,DRY,3.30,13.37,14.7,780.00,1.4
2020-10-08,23:35:00,DRY,4.25,13.30,15.0,780.00,1.5
2020-10-08,23:40:00,DRY,3.20,13.23,14.3,780.00,0.9
2020-10-08,23:45:00,DRY,2.50,13.25,15.0,779.50,1.6
2020-10-08,23:50:00,DRY,2.87,13.13,15.0,779.33,1.4
2020-10-08,23:55:00,DRY,2.50,13.15,14.0,779.50,1.2
2020-10-09,00:00:00,DRY,1.53,12.97,15.0,779.00,1.5
2020-10-09,00:05:00,DRY,1.35,12.70,16.5,779.00,0.8
2020-10-09,00:10:00,DRY,1.43,12.60,16.0,779.00,1.8
2020-10-09,00:15:00,DRY,1.55,12.75,16.0,779.00,1.4
2020-10-09,00:20:00,DRY,1.13,12.53,16.3,779.00,1.4
2020-10-09,00:25:00,DRY,1.60,12.15,17.0,779.00,0.9
2020-10-09,00:30:00,DRY,1.10,12.23,16.7,779.00,2.1
2020-10-09,00:35:00,DRY,1.20,12.65,16.0,779.00,1.9
2020-10-09,00:40:00,DRY,1.47,12.63,15.7,779.00,1.5
2020-10-09,00:45:00,DRY,1.85,12.70,15.0,779.00,1.0
2020-10-09,00:50:00,DRY,1.50,12.87,14.3,779.00,0.9
2020-10-09,00:55:00,DRY,2.05,13.00,13.5,779.00,1.9
2020-10-09,01:00:00,DRY,1.63,13.03,14.7,779.00,1.3
2020-10-09,01:05:00,DRY,2.05,12.80,19.0,779.00,0.3
2020-10-09,01:10:00,DRY,1.73,12.60,24.3,779.00,1.9
2020-10-09,01:15:00,DRY,1.75,12.30,28.5,779.00,1.7
2020-10-09,01:20:00,DRY,2.10,12.30,30.0,779.00,0.9
2020-10-09,01:25:00,DRY,2.35,11.95,32.0,779.00,0.5
2020-10-09,01:30:00,DRY,2.27,12.10,29.0,779.00,0.9
2020-10-09,01:35:00,DRY,1.80,12.30,29.0,779.00,1.7
2020-10-09,01:40:00,DRY,2.00,12.20,31.3,779.00,1.8
2020-10-09,01:45:00,DRY,2.50,12.10,32.0,779.00,1.4
2020-10-09,01:50:00,DRY,2.50,12.00,33.0,779.00,2.1
2020-10-09,01:55:00,DRY,2.30,12.15,32.5,779.00,1.1
2020-10-09,02:00:00,DRY,2.23,12.00,33.0,779.00,0.9
2020-10-09,02:05:00,DRY,2.10,12.35,25.0,779.00,0.9
2020-10-09,02:10:00,DRY,1.40,12.77,26.3,779.00,0.5
2020-10-09,02:15:00,DRY,1.85,12.35,31.0,779.00,0.4
2020-10-09,02:20:00,DRY,1.10,12.40,27.3,779.00,1.1
2020-10-09,02:25:00,DRY,2.30,12.70,24.5,779.00,0.9
2020-10-09,02:30:00,DRY,2.07,12.43,28.0,779.00,0.9
2020-10-09,02:35:00,DRY,1.40,12.30,28.0,778.50,0.9
2020-10-09,02:40:00,DRY,2.80,12.07,32.3,778.67,1.2
2020-10-09,02:45:00,DRY,2.80,11.85,33.0,778.00,1.2
2020-10-09,02:50:00,DRY,2.77,11.47,34.0,778.00,1.1
2020-10-09,02:55:00,DRY,3.30,11.60,34.0,778.00,1.5
2020-10-09,03:00:00,DRY,3.10,11.70,33.7,778.00,1.1
2020-10-09,03:05:00,DRY,3.35,11.45,35.0,778.00,1.4
2020-10-09,03:10:00,DRY,3.20,11.50,34.0,778.00,1.6
2020-10-09,03:15:00,DRY,2.60,11.50,34.0,778.00,1.9
2020-10-09,03:20:00,DRY,3.13,11.47,34.0,778.00,2.1
2020-10-09,03:25:00,DRY,3.10,11.45,34.0,778.00,0.8
2020-10-09,03:30:00,DRY,3.27,11.37,34.0,778.00,1.1
2020-10-09,03:35:00,DRY,3.35,11.50,34.5,778.00,1.0
2020-10-09,03:40:00,DRY,3.47,11.57,34.0,778.00,0.9
2020-10-09,03:45:00,DRY,3.70,11.50,34.5,778.00,1.6
2020-10-09,03:50:00,DRY,3.33,11.27,35.0,778.00,1.1
2020-10-09,03:55:00,DRY,3.35,11.30,35.0,778.00,1.9
2020-10-09,04:00:00,DRY,3.07,11.37,34.7,778.00,0.9
2020-10-09,04:05:00,DRY,3.50,11.40,34.0,778.00,1.1
2020-10-09,04:10:00,DRY,3.17,11.33,35.0,778.00,0.9
2020-10-09,04:15:00,DRY,2.75,11.40,34.0,778.00,1.8
2020-10-09,04:20:00,DRY,3.43,11.47,33.7,778.00,1.5
2020-10-09,04:25:00,DRY,3.60,11.30,34.0,778.00,0.9
2020-10-09,04:30:00,DRY,3.63,11.27,33.3,778.00,1.3
2020-10-09,04:35:00,DRY,3.05,11.20,33.0,778.00,0.8
2020-10-09,04:40:00,DRY,3.03,11.40,32.7,778.00,1.1
2020-10-09,04:45:00,DRY,3.15,11.40,32.0,778.00,1.7
2020-10-09,04:50:00,DRY,2.63,11.53,32.0,778.00,1.1
2020-10-09,04:55:00,DRY,2.70,11.50,33.0,778.00,2.1
2020-10-09,05:00:00,DRY,2.60,11.40,33.3,778.00,1.0
2020-10-09,05:05:00,DRY,2.40,11.45,32.0,778.00,1.2
2020-10-09,05:10:00,DRY,3.07,11.43,32.0,778.00,1.4
2020-10-09,05:15:00,DRY,3.40,11.35,32.5,778.00,1.1
2020-10-09,05:20:00,DRY,2.97,11.27,33.3,778.00,1.2
2020-10-09,05:25:00,DRY,3.35,11.35,33.0,778.00,1.1
2020-10-09,05:30:00,DRY,3.60,11.17,33.0,778.00,1.1
2020-10-09,05:35:00,DRY,3.70,11.20,34.0,778.00,1.4
2020-10-09,05:40:00,DRY,3.27,11.13,33.7,778.00,1.0
2020-10-09,05:45:00,DRY,2.85,11.30,32.5,778.00,1.6
2020-10-09,05:50:00,DRY,2.60,11.47,32.0,778.67,0.2
2020-10-09,05:55:00,DRY,2.80,11.45,32.5,778.00,1.4
2020-10-09,06:00:00,DRY,2.07,11.83,31.7,778.67,1.0
2020-10-09,06:05:00,DRY,2.00,12.55,18.0,778.00,1.9
2020-10-09,06:10:00,DRY,1.70,12.77,15.7,779.00,1.6
2020-10-09,06:15:00,DRY,1.25,12.65,17.0,779.00,1.0
2020-10-09,06:20:00,DRY,1.60,12.70,14.7,779.00,2.0
2020-10-09,06:25:00,DRY,1.85,12.85,12.5,779.00,1.9
2020-10-09,06:30:00,DRY,1.10,12.83,14.3,779.00,1.7
2020-10-09,06:35:00,DRY,1.80,12.75,13.0,779.00,1.1
2020-10-09,06:40:00,DRY,1.87,13.27,10.3,779.00,1.0
2020-10-09,06:45:00,DRY,1.65,13.35,10.5,779.00,2.1
2020-10-09,06:50:00,DRY,1.17,13.37,8.7,779.00,1.0
2020-10-09,06:55:00,DRY,1.40,13.45,8.0,779.00,3.2
2020-10-09,07:00:00,DRY,1.57,13.60,7.0,779.00,5.5
2020-10-09,07:05:00,DRY,1.80,13.60,7.5,779.00,7.7
2020-10-09,07:10:00,DRY,3.67,13.63,7.0,779.00,9.6
2020-10-09,07:15:00,DRY,2.30,13.70,7.0,779.00,15.3
2020-10-09,07:20:00,DRY,2.53,13.73,7.0,779.00,20.8
2020-10-09,07:25:00,DRY,2.60,13.70,7.0,779.00,26.0
2020-10-09,07:30:00,DRY,1.57,13.53,7.0,779.00,31.4
2020-10-09,07:35:00,DRY,1.50,13.55,7.0,779.00,36.4
2020-10-09,07:40:00,DRY,1.37,13.60,7.0,779.00,41.1
2020-10-09,07:45:00,DRY,1.05,13.50,7.0,779.00,44.2
2020-10-09,07:50:00,DRY,0.93,13.43,7.7,779.00,47.8
2020-10-09,07:55:00,DRY,1.30,13.45,7.5,779.00,51.5
2020-10-09,08:00:00,DRY,0.90,13.03,9.7,779.00,55.4
2020-10-09,08:05:00,DRY,0.70,12.65,10.0,779.00,58.4
2020-10-09,08:10:00,DRY,0.83,12.93,9.0,779.00,124.3
2020-10-09,08:15:00,DRY,1.00,13.75,7.0,779.00,223.9
2020-10-09,08:20:00,DRY,1.60,14.03,7.0,779.00,255.7
2020-10-09,08:25:00,DRY,0.75,14.00,7.0,779.00,279.9
2020-10-09,08:30:00,DRY,0.83,14.00,8.0,779.00,263.7
2020-10-09,08:35:00,DRY,1.10,14.05,7.5,779.00,278.0
2020-10-09,08:40:00,DRY,1.00,14.27,7.0,779.00,339.2
2020-10-09,08:45:00,DRY,1.45,14.50,7.5,779.00,431.2
2020-10-09,08:50:00,DRY,1.30,14.87,6.3,779.00,412.8
2020-10-09,08:55:00,DRY,0.90,15.10,6.0,779.00,438.0
2020-10-09,09:00:00,DRY,0.50,15.17,6.3,779.00,465.4
2020-10-09,09:05:00,DRY,2.10,15.15,8.5,779.00,459.1
2020-10-09,09:10:00,DRY,2.07,15.03,10.3,779.00,464.8
2020-10-09,09:15:00,DRY,2.35,15.00,10.5,779.00,563.8
2020-10-09,09:20:00,DRY,2.13,15.30,9.7,779.00,579.4
2020-10-09,09:25:00,DRY,1.90,15.40,9.5,779.00,564.8
2020-10-09,09:30:00,DRY,2.13,15.43,11.0,779.00,608.6
2020-10-09,09:35:00,DRY,2.35,15.40,12.0,779.00,648.2
2020-10-09,09:40:00,DRY,2.10,15.50,11.0,779.00,642.3
2020-10-09,09:45:00,DRY,1.80,15.65,13.0,779.00,657.2
2020-10-09,09:50:00,DRY,1.37,15.73,13.0,779.00,687.6
2020-10-09,09:55:00,DRY,2.15,16.00,11.5,779.00,694.3
2020-10-09,10:00:00,DRY,2.03,16.03,13.0,779.00,732.1
2020-10-09,10:05:00,DRY,2.70,15.95,13.0,779.00,744.6
2020-10-09,10:10:00,DRY,1.57,16.13,14.0,779.00,721.8
2020-10-09,10:15:00,DRY,1.25,16.25,14.5,779.00,751.8
2020-10-09,10:20:00,DRY,0.97,16.23,15.3,779.00,785.3
2020-10-09,10:25:00,DRY,1.55,16.35,15.5,779.00,804.6
2020-10-09,10:30:00,DRY,1.43,16.60,16.0,779.00,817.0
2020-10-09,10:35:00,DRY,1.05,16.55,16.5,779.00,831.0
2020-10-09,10:40:00,DRY,2.33,16.53,17.7,779.00,844.5
2020-10-09,10:45:00,DRY,1.95,16.45,17.0,779.00,857.9
2020-10-09,10:50:00,DRY,1.97,16.67,17.7,779.00,872.2
2020-10-09,10:55:00,DRY,1.20,16.45,18.5,779.00,884.5
2020-10-09,11:00:00,DRY,2.30,16.27,25.3,779.00,895.2
2020-10-09,11:05:00,DRY,1.10,16.20,20.5,779.00,906.5
2020-10-09,11:10:00,DRY,2.50,16.33,19.3,779.00,915.4
2020-10-09,11:15:00,DRY,2.40,16.50,22.5,779.00,924.1
2020-10-09,11:20:00,DRY,2.57,16.43,22.3,779.00,937.9
2020-10-09,11:25:00,DRY,1.10,16.65,21.0,779.00,946.6
2020-10-09,11:30:00,DRY,1.83,16.80,22.3,779.00,955.4
2020-10-09,11:35:00,DRY,2.10,16.80,25.5,779.00,962.2
2020-10-09,11:40:00,DRY,2.83,16.83,24.3,779.00,967.7
2020-10-09,11:45:00,DRY,3.90,16.55,25.5,779.00,973.9
2020-10-09,11:50:00,DRY,2.77,16.37,21.7,779.00,981.6
2020-10-09,11:55:00,DRY,2.50,16.50,20.0,779.00,987.3
2020-10-09,12:00:00,DRY,2.17,16.37,17.3,779.00,993.0
2020-10-09,12:05:00,DRY,2.95,16.55,21.5,779.00,998.3
2020-10-09,12:10:00,DRY,1.50,16.87,20.0,779.00,1002.5
2020-10-09,12:15:00,DRY,2.15,16.50,19.5,779.00,1007.1
2020-10-09,12:20:00,DRY,3.07,16.47,19.0,779.00,1012.2
2020-10-09,12:25:00,DRY,3.65,16.60,19.5,779.00,1014.8
2020-10-09,12:30:00,DRY,1.53,16.93,20.3,779.00,1017.9
2020-10-09,12:35:00,DRY,2.80,17.10,19.0,779.00,1020.1
2020-10-09,12:40:00,DRY,2.83,16.93,17.3,779.00,1022.7
2020-10-09,12:45:00,DRY,2.25,16.80,19.0,779.00,1023.7
2020-10-09,12:50:00,DRY,1.67,16.77,19.0,779.00,1024.8
2020-10-09,12:55:00,DRY,2.30,16.60,18.5,779.00,1025.2
2020-10-09,13:00:00,DRY,2.07,16.57,22.3,779.00,1026.5
2020-10-09,13:05:00,DRY,1.40,16.55,23.0,779.00,1024.0
2020-10-09,13:10:00,DRY,2.80,16.90,21.7,779.00,1022.3
2020-10-09,13:15:00,DRY,4.35,16.60,21.0,778.50,1022.5
2020-10-09,13:20:00,DRY,1.93,16.87,22.3,779.00,1022.1
2020-10-09,13:25:00,DRY,3.30,16.85,22.5,778.50,1019.5
2020-10-09,13:30:00,DRY,2.30,17.20,25.0,778.00,1017.3
2020-10-09,13:35:00,DRY,1.90,16.70,29.0,779.00,1013.0
2020-10-09,13:40:00,DRY,2.73,16.70,22.0,778.67,1009.0
2020-10-09,13:45:00,DRY,1.10,16.70,23.0,778.00,1005.0
2020-10-09,13:50:00,DRY,1.93,16.73,21.3,778.33,1001.0
2020-10-09,13:55:00,DRY,4.10,16.95,24.5,778.00,995.6
2020-10-09,14:00:00,DRY,1.70,16.67,20.0,778.00,989.9
2020-10-09,14:05:00,DRY,2.20,16.95,20.5,778.00,984.6
2020-10-09,14:10:00,DRY,1.80,17.07,21.3,778.00,975.7
2020-10-09,14:15:00,DRY,2.90,16.60,22.0,778.00,966.8
2020-10-09,14:20:00,DRY,1.93,16.73,20.0,778.00,957.5
2020-10-09,14:25:00,DRY,3.60,16.45,21.0,778.00,947.8
2020-10-09,14:30:00,DRY,2.03,16.50,23.3,778.00,939.1
2020-10-09,14:35:00,DRY,2.05,16.65,27.0,778.00,931.0
2020-10-09,14:40:00,DRY,1.43,16.63,24.0,778.00,928.8
2020-10-09,14:45:00,DRY,1.95,16.30,25.5,778.00,933.0
2020-10-09,14:50:00,DRY,2.87,16.23,27.0,778.00,771.3
2020-10-09,14:55:00,DRY,2.85,16.05,26.0,778.00,788.5
2020-10-09,15:00:00,DRY,2.70,16.37,26.3,778.00,952.2
2020-10-09,15:05:00,DRY,2.15,16.55,25.0,778.00,945.2
2020-10-09,15:10:00,DRY,2.30,16.37,23.3,778.00,904.2
2020-10-09,15:15:00,DRY,4.10,16.35,18.5,778.00,880.2
2020-10-09,15:20:00,DRY,3.33,16.27,17.0,778.00,843.4
2020-10-09,15:25:00,DRY,3.65,16.60,17.5,778.00,821.9
2020-10-09,15:30:00,DRY,3.13,16.40,21.7,778.00,800.6
2020-10-09,15:35:00,DRY,4.30,15.90,18.5,778.00,783.9
2020-10-09,15:40:00,DRY,2.73,16.40,19.0,778.00,755.2
2020-10-09,15:45:00,DRY,3.05,16.15,19.0,778.00,744.3
2020-10-09,15:50:00,DRY,3.77,15.93,19.0,778.00,739.7
2020-10-09,15:55:00,DRY,1.55,16.00,20.0,778.00,717.6
2020-10-09,16:00:00,DRY,1.97,16.13,20.3,778.00,701.2
2020-10-09,16:05:00,DRY,3.35,16.15,18.5,778.00,703.1
2020-10-09,16:10:00,DRY,1.23,16.07,21.0,778.00,566.1
2020-10-09,16:15:00,DRY,2.05,15.75,21.5,778.00,442.1
2020-10-09,16:20:00,DRY,1.77,15.40,21.7,778.00,309.9
2020-10-09,16:25:00,DRY,1.50,15.15,22.0,778.00,393.4
2020-10-09,16:30:00,DRY,1.77,15.60,20.3,778.00,570.4
2020-10-09,16:35:00,DRY,2.45,15.60,17.5,778.00,630.6
2020-10-09,16:40:00,DRY,1.23,15.73,19.3,778.00,660.8
2020-10-09,16:45:00,DRY,2.30,15.60,26.5,778.00,606.1
2020-10-09,16:50:00,DRY,1.07,15.87,24.0,778.00,541.9
2020-10-09,16:55:00,DRY,2.85,15.70,18.5,778.00,497.2
2020-10-09,17:00:00,DRY,3.77,15.33,19.3,778.00,462.3
2020-10-09,17:05:00,DRY,3.00,15.25,15.0,778.00,430.7
2020-10-09,17:10:00,DRY,1.83,15.23,14.0,778.00,403.8
2020-10-09,17:15:00,DRY,2.55,15.05,19.0,778.00,382.2
2020-10-09,17:20:00,DRY,2.30,15.10,16.7,778.00,363.5
2020-10-09,17:25:00,DRY,2.40,15.05,15.0,778.00,342.2
2020-10-09,17:30:00,DRY,2.37,14.97,15.0,778.00,317.2
2020-10-09,17:35:00,DRY,2.25,14.50,13.5,778.00,293.1
2020-10-09,17:40:00,DRY,2.93,14.33,12.3,778.00,269.6
2020-10-09,17:45:00,DRY,3.25,14.10,13.5,778.00,244.2
2020-10-09,17:50:00,DRY,1.83,13.80,14.7,778.00,220.6
2020-10-09,17:55:00,DRY,1.35,13.90,14.5,778.00,196.8
2020-10-09,18:00:00,DRY,2.37,13.93,14.0,778.00,176.0
2020-10-09,18:05:00,DRY,1.85,13.75,13.0,778.00,155.8
2020-10-09,18:10:00,DRY,2.30,13.30,13.7,778.00,130.4
2020-10-09,18:15:00,DRY,2.50,13.25,13.5,778.00,103.7
2020-10-09,18:20:00,DRY,2.63,12.83,15.7,778.00,31.4
2020-10-09,18:25:00,DRY,1.80,12.65,14.5,778.00,20.9
2020-10-09,18:30:00,DRY,2.60,12.73,12.3,778.00,18.1
2020-10-09,18:35:00,DRY,2.85,12.30,13.0,778.00,15.2
2020-10-09,18:40:00,DRY,3.43,12.03,13.7,778.00,12.7
2020-10-09,18:45:00,DRY,3.35,12.05,12.5,778.00,9.1
2020-10-09,18:50:00,DRY,2.13,11.90,13.0,778.00,7.8
2020-10-09,18:55:00,DRY,3.05,11.80,13.0,778.00,4.4
2020-10-09,19:00:00,DRY,2.53,11.80,13.0,778.00,2.2
2020-10-09,19:05:00,DRY,3.35,11.80,13.0,778.00,1.5
2020-10-09,19:10:00,DRY,3.87,11.97,13.3,778.00,1.1
2020-10-09,19:15:00,DRY,2.75,11.95,13.5,778.00,1.5
2020-10-09,19:20:00,DRY,4.00,11.83,14.0,778.00,1.2
2020-10-09,19:25:00,DRY,4.90,11.90,14.0,778.00,1.1
2020-10-09,19:30:00,DRY,4.97,11.97,15.0,778.00,1.2
2020-10-09,19:35:00,DRY,4.60,12.05,14.5,778.00,1.1
2020-10-09,19:40:00,DRY,4.13,11.80,16.3,778.00,1.2
2020-10-09,19:45:00,DRY,4.40,11.70,17.5,778.00,1.6
2020-10-09,19:50:00,DRY,4.30,11.70,19.7,778.00,1.3
2020-10-09,19:55:00,DRY,4.25,11.55,21.0,778.00,1.1
2020-10-09,20:00:00,DRY,4.03,11.47,22.0,778.00,1.0
2020-10-09,20:05:00,DRY,3.55,11.40,23.0,778.00,1.2
2020-10-09,20:10:00,DRY,3.97,11.57,20.3,778.00,1.5
2020-10-09,20:15:00,DRY,3.55,11.80,19.0,778.00,1.2
2020-10-09,20:20:00,DRY,3.40,11.57,21.7,778.00,1.1
2020-10-09,20:25:00,DRY,3.15,11.40,22.0,778.00,1.1
2020-10-09,20:30:00,DRY,3.23,11.53,19.7,778.00,1.6
2020-10-09,20:35:00,DRY,3.70,11.75,17.5,778.00,1.2
2020-10-09,20:40:00,DRY,2.97,11.77,20.0,778.00,1.3
2020-10-09,20:45:00,DRY,3.10,11.55,22.0,778.00,1.1
2020-10-09,20:50:00,DRY,3.60,11.67,18.0,778.00,1.2
2020-10-09,20:55:00,DRY,3.90,11.80,17.0,778.00,1.1
2020-10-09,21:00:00,DRY,3.83,11.83,16.7,778.00,1.4
2020-10-09,21:05:00,DRY,4.20,11.95,16.5,778.00,1.2
2020-10-09,21:10:00,DRY,4.03,12.00,16.0,778.00,1.2
2020-10-09,21:15:00,DRY,3.45,12.00,15.5,778.00,1.1
2020-10-09,21:20:00,DRY,2.93,11.73,22.3,778.00,1.3
2020-10-09,21:25:00,DRY,3.05,11.50,25.0,778.00,1.3
2020-10-09,21:30:00,DRY,2.87,11.27,31.7,778.00,1.6
2020-10-09,21:35:00,DRY,2.70,11.60,23.0,778.00,1.6
2020-10-09,21:40:00,DRY,4.03,11.57,21.0,778.33,1.2
2020-10-09,21:45:00,DRY,3.75,11.75,21.5,778.50,1.1
2020-10-09,21:50:00,DRY,3.50,11.83,20.3,778.00,1.6
2020-10-09,21:55:00,DRY,2.85,11.75,23.5,778.00,1.1
2020-10-09,22:00:00,DRY,2.77,11.23,30.3,778.00,1.2
2020-10-09,22:05:00,DRY,2.50,11.05,32.5,778.00,1.0
2020-10-09,22:10:00,DRY,2.83,11.17,32.7,778.00,1.6
2020-10-09,22:15:00,DRY,2.70,11.30,32.0,778.00,1.1
2020-10-09,22:20:00,DRY,3.00,11.07,32.7,778.00,1.8
2020-10-09,22:25:00,DRY,2.80,11.25,31.5,778.00,0.2
2020-10-09,22:30:00,DRY,3.10,11.43,30.3,778.00,0.9
2020-10-09,22:35:00,DRY,3.05,11.50,27.5,778.00,1.1
2020-10-09,22:40:00,DRY,2.93,11.30,31.0,778.00,1.5
2020-10-09,22:45:00,DRY,2.40,11.40,28.5,778.00,1.2
2020-10-09,22:50:00,DRY,1.97,11.73,26.0,778.00,1.4
2020-10-09,22:55:00,DRY,1.25,11.80,27.0,778.00,1.5
2020-10-09,23:00:00,DRY,1.23,12.07,22.3,778.00,1.1
2020-10-09,23:05:00,DRY,1.05,12.20,20.0,778.00,0.9
2020-10-09,23:10:00,DRY,0.97,12.30,19.0,778.00,1.2
2020-10-09,23:15:00,DRY,1.30,12.30,18.5,778.00,0.7
2020-10-09,23:20:00,DRY,1.47,12.40,18.7,778.00,0.9
2020-10-09,23:25:00,DRY,1.10,12.30,19.5,778.00,1.9
2020-10-09,23:30:00,DRY,1.47,12.33,14.7,778.00,1.7
2020-10-09,23:35:00,DRY,1.50,12.75,12.0,778.00,1.1
2020-10-09,23:40:00,DRY,1.13,13.00,12.7,778.00,1.6
2020-10-09,23:45:00,DRY,1.20,13.10,12.5,778.00,2.1
2020-10-09,23:50:00,DRY,1.43,12.90,12.7,778.00,2.2
2020-10-09,23:55:00,DRY,1.25,12.90,12.5,778.00,1.7
2020-10-10,00:00:00,DRY,1.17,13.30,11.3,778.00,1.2
2020-10-10,00:05:00,DRY,1.45,13.05,14.0,778.00,1.6
2020-10-10,00:10:00,DRY,1.90,12.43,19.3,778.00,0.8
2020-10-10,00:15:00,DRY,3.25,12.40,13.5,778.00,1.1
2020-10-10,00:20:00,DRY,2.63,12.17,13.7,778.00,1.6
2020-10-10,00:25:00,DRY,1.30,12.15,14.0,778.00,0.6
2020-10-10,00:30:00,DRY,0.33,12.40,14.3,778.00,1.2
2020-10-10,00:35:00,DRY,1.35,12.65,13.0,778.00,1.1
2020-10-10,00:40:00,DRY,2.20,12.37,13.0,778.00,1.0
2020-10-10,00:45:00,DRY,1.90,12.25,13.5,778.00,1.7
2020-10-10,00:50:00,DRY,1.90,12.23,13.0,778.00,1.3
2020-10-10,00:55:00,DRY,1.25,12.60,11.5,778.00,2.0
2020-10-10,01:00:00,DRY,1.57,13.33,10.0,778.00,0.4
2020-10-10,01:05:00,DRY,1.25,13.80,9.5,778.00,0.3
2020-10-10,01:10:00,DRY,0.53,13.83,9.7,777.67,1.6
2020-10-10,01:15:00,DRY,0.80,13.40,10.0,777.50,1.9
2020-10-10,01:20:00,DRY,0.83,13.03,10.3,777.67,1.3
2020-10-10,01:25:00,DRY,0.60,12.30,12.0,777.00,2.0
2020-10-10,01:30:00,DRY,0.80,12.50,12.3,777.33,1.9
2020-10-10,01:35:00,DRY,1.30,12.55,12.0,777.00,1.0
2020-10-10,01:40:00,DRY,0.67,12.33,14.3,777.00,1.8
2020-10-10,01:45:00,DRY,0.95,12.40,14.5,777.00,1.2
2020-10-10,01:50:00,DRY,0.47,13.17,10.7,777.00,1.5
2020-10-10,01:55:00,DRY,1.00,13.40,10.0,777.00,1.2
2020-10-10,02:00:00,DRY,1.83,12.90,11.7,777.00,0.5
2020-10-10,02:05:00,DRY,2.25,12.30,12.0,777.00,0.8
2020-10-10,02:10:00,DRY,2.20,12.53,11.7,777.00,1.7
2020-10-10,02:15:00,DRY,2.95,12.70,12.0,777.00,1.1
2020-10-10,02:20:00,DRY,2.53,12.80,12.0,777.00,0.9
2020-10-10,02:25:00,DRY,1.60,12.95,11.5,777.00,2.0
2020-10-10,02:30:00,DRY,1.90,13.17,11.0,777.00,0.3
2020-10-10,02:35:00,DRY,1.90,13.15,11.0,777.00,0.8
2020-10-10,02:40:00,DRY,1.87,12.87,11.7,777.00,1.1
2020-10-10,02:45:00,DRY,2.15,12.70,11.5,777.00,1.4
2020-10-10,02:50:00,DRY,2.40,12.30,11.3,777.00,0.4
2020-10-10,02:55:00,DRY,2.55,12.30,10.5,777.00,0.2
2020-10-10,03:00:00,DRY,2.67,12.73,9.0,777.00,1.0
2020-10-10,03:05:00,DRY,2.20,12.40,10.0,777.00,1.7
2020-10-10,03:10:00,DRY,2.03,12.20,10.0,777.00,1.3
2020-10-10,03:15:00,DRY,2.60,12.00,10.0,777.00,1.2
2020-10-10,03:20:00,DRY,2.73,12.37,9.7,777.00,2.1
2020-10-10,03:25:00,DRY,2.60,12.65,9.0,777.00,1.9
2020-10-10,03:30:00,DRY,2.60,12.33,9.3,777.00,0.5
2020-10-10,03:35:00,DRY,2.05,12.75,9.0,777.00,1.9
2020-10-10,03:40:00,DRY,2.00,12.90,9.0,776.67,1.2
2020-10-10,03:45:00,DRY,2.60,12.50,10.0,776.00,1.1
2020-10-10,03:50:00,DRY,2.33,12.57,9.7,776.00,1.5
2020-10-10,03:55:00,DRY,2.65,12.20,10.5,776.00,1.5
2020-10-10,04:00:00,DRY,2.53,12.03,10.7,776.67,1.0
2020-10-10,04:05:00,DRY,2.40,12.05,10.0,776.00,1.4
2020-10-10,04:10:00,DRY,2.97,12.27,10.3,776.00,1.6
2020-10-10,04:15:00,DRY,3.15,12.00,12.5,776.50,1.3
2020-10-10,04:20:00,DRY,2.83,12.03,12.0,776.67,1.2
2020-10-10,04:25:00,DRY,2.45,11.65,12.5,776.50,1.8
2020-10-10,04:30:00,DRY,2.70,11.27,12.0,776.00,1.0
2020-10-10,04:35:00,DRY,2.60,11.50,11.5,776.50,1.9
2020-10-10,04:40:00,DRY,1.67,12.57,10.3,776.67,0.9
2020-10-10,04:45:00,DRY,1.80,12.45,11.0,777.00,2.1
2020-10-10,04:50:00,DRY,1.77,12.23,11.0,777.00,1.4
2020-10-10,04:55:00,DRY,2.75,12.30,11.0,776.50,1.9
2020-10-10,05:00:00,DRY,2.53,12.33,11.0,776.00,1.1
2020-10-10,05:05:00,DRY,2.20,12.50,11.5,776.00,0.7
2020-10-10,05:10:00,DRY,2.30,12.47,12.0,776.33,1.2
2020-10-10,05:15:00,DRY,1.45,12.45,12.5,776.50,2.0
2020-10-10,05:20:00,DRY,0.87,12.30,13.0,776.33,1.7
2020-10-10,05:25:00,DRY,0.80,12.10,13.0,776.00,1.2
2020-10-10,05:30:00,DRY,1.30,12.07,13.0,776.00,1.7
2020-10-10,05:35:00,DRY,1.30,12.05,13.0,776.00,1.1
2020-10-10,05:40:00,DRY,1.17,12.17,12.7,776.00,1.1
2020-10-10,05:45:00,DRY,2.30,11.90,13.0,776.00,0.9
2020-10-10,05:50:00,DRY,3.17,12.00,12.7,776.00,1.7
2020-10-10,05:55:00,DRY,2.10,12.45,13.0,776.00,1.9
2020-10-10,06:00:00,DRY,2.07,12.57,13.0,776.00,1.8
2020-10-10,06:05:00,DRY,2.45,12.50,12.0,776.00,1.6
2020-10-10,06:10:00,DRY,2.17,12.43,12.3,776.00,1.8
2020-10-10,06:15:00,DRY,1.50,11.95,13.0,776.00,2.2
2020-10-10,06:20:00,DRY,0.37,11.33,14.3,776.00,0.9
2020-10-10,06:25:00,DRY,0.35,11.05,19.0,776.00,1.4
2020-10-10,06:30:00,DRY,0.53,10.90,23.7,776.33,1.0
2020-10-10,06:35:00,DRY,0.55,10.85,25.5,776.00,1.1
2020-10-10,06:40:00,DRY,0.60,10.57,26.3,776.00,0.7
2020-10-10,06:45:00,DRY,0.80,10.65,26.0,776.00,1.2
2020-10-10,06:50:00,DRY,0.37,11.17,24.0,776.33,1.5
2020-10-10,06:55:00,DRY,0.70,11.35,19.5,776.50,2.9
2020-10-10,07:00:00,DRY,1.20,11.67,19.0,776.33,2.4
2020-10-10,07:05:00,DRY,2.25,11.45,19.5,776.00,4.2
2020-10-10,07:10:00,DRY,2.43,11.73,16.3,776.00,7.7
2020-10-10,07:15:00,DRY,1.75,12.45,15.0,777.00,10.8
2020-10-10,07:20:00,DRY,0.50,11.80,16.7,776.67,12.6
2020-10-10,07:25:00,DRY,0.60,11.55,21.5,776.50,15.8
2020-10-10,07:30:00,DRY,0.40,11.63,19.3,776.67,17.9
2020-10-10,07:35:00,DRY,0.50,11.45,18.0,777.00,19.5
2020-10-10,07:40:00,DRY,0.40,11.53,20.0,777.00,22.2
2020-10-10,07:45:00,DRY,0.45,11.25,22.5,777.00,23.0
2020-10-10,07:50:00,DRY,0.50,11.30,23.0,777.00,24.7
2020-10-10,07:55:00,DRY,1.40,11.60,26.5,777.00,27.1
2020-10-10,08:00:00,DRY,1.43,11.60,29.0,777.00,28.8
2020-10-10,08:05:00,DRY,1.25,11.50,30.0,777.00,29.4
2020-10-10,08:10:00,DRY,1.03,11.80,29.0,777.00,126.8
2020-10-10,08:15:00,DRY,0.30,12.20,26.5,777.00,291.5
2020-10-10,08:20:00,DRY,0.80,12.93,16.3,777.00,315.2
2020-10-10,08:25:00,DRY,1.10,13.15,15.5,777.00,339.0
2020-10-10,08:30:00,DRY,0.97,13.00,15.3,777.00,362.0
2020-10-10,08:35:00,DRY,0.45,13.05,16.5,777.00,385.0
2020-10-10,08:40:00,DRY,0.60,13.73,15.0,777.00,407.9
2020-10-10,08:45:00,DRY,0.55,13.85,16.0,776.50,430.6
2020-10-10,08:50:00,DRY,0.40,13.80,17.0,776.33,453.6
2020-10-10,08:55:00,DRY,1.10,13.65,22.0,776.50,476.8
2020-10-10,09:00:00,DRY,1.37,13.23,24.0,776.67,498.6
2020-10-10,09:05:00,DRY,1.25,13.05,23.0,776.00,518.0
2020-10-10,09:10:00,DRY,0.67,13.53,22.7,776.00,540.4
2020-10-10,09:15:00,DRY,0.65,14.50,20.0,777.00,562.4
2020-10-10,09:20:00,DRY,1.07,14.37,24.3,776.67,580.6
2020-10-10,09:25:00,DRY,1.65,13.80,25.5,776.50,600.7
2020-10-10,09:30:00,DRY,0.80,14.27,24.3,776.00,621.1
2020-10-10,09:35:00,DRY,0.70,14.35,23.0,776.00,640.5
2020-10-10,09:40:00,DRY,0.73,14.67,24.3,776.67,659.8
2020-10-10,09:45:00,DRY,0.85,14.70,24.5,776.50,677.6
2020-10-10,09:50:00,DRY,1.10,14.93,20.0,776.33,694.4
2020-10-10,09:55:00,DRY,2.60,14.70,20.0,776.00,713.2
2020-10-10,10:00:00,DRY,1.83,14.70,19.7,776.33,730.6
2020-10-10,10:05:00,DRY,1.90,14.40,19.5,777.00,747.0
2020-10-10,10:10:00,DRY,3.13,14.17,21.7,777.00,762.6
2020-10-10,10:15:00,DRY,1.80,14.30,23.5,777.00,780.0
2020-10-10,10:20:00,DRY,1.53,14.73,23.0,777.00,795.4
2020-10-10,10:25:00,DRY,2.55,15.25,20.0,777.00,811.2
2020-10-10,10:30:00,DRY,1.23,15.37,23.0,777.00,824.0
2020-10-10,10:35:00,DRY,1.20,15.10,26.0,777.00,840.0
2020-10-10,10:40:00,DRY,0.80,15.13,25.7,777.00,851.7
2020-10-10,10:45:00,DRY,0.95,15.40,26.0,777.00,864.3
2020-10-10,10:50:00,DRY,1.13,15.60,28.0,777.00,878.9
2020-10-10,10:55:00,DRY,1.15,16.00,25.0,777.00,891.1
2020-10-10,11:00:00,DRY,1.50,15.30,26.7,777.00,903.6
2020-10-10,11:05:00,DRY,1.15,15.10,27.5,777.00,912.2
2020-10-10,11:10:00,DRY,0.60,15.37,28.0,777.00,923.6
2020-10-10,11:15:00,DRY,1.80,15.60,27.5,777.00,934.5
2020-10-10,11:20:00,DRY,1.43,15.77,28.0,777.00,943.8
2020-10-10,11:25:00,DRY,1.15,16.35,27.5,777.00,954.6
2020-10-10,11:30:00,DRY,0.93,16.17,27.7,777.00,963.3
2020-10-10,11:35:00,DRY,1.20,16.00,30.0,777.00,969.6
2020-10-10,11:40:00,DRY,1.63,16.17,31.0,777.00,978.6
2020-10-10,11:45:00,DRY,2.10,15.50,33.0,777.00,986.5
2020-10-10,11:50:00,DRY,1.13,14.83,34.3,777.00,991.5
2020-10-10,11:55:00,DRY,1.65,14.70,38.0,777.00,998.1
2020-10-10,12:00:00,DRY,2.27,14.83,34.7,777.00,1005.5
2020-10-10,12:05:00,DRY,1.20,14.55,34.0,777.00,1010.5
2020-10-10,12:10:00,DRY,1.93,15.53,32.0,777.00,1015.2
2020-10-10,12:15:00,DRY,2.15,15.30,33.0,777.00,1016.0
2020-10-10,12:20:00,DRY,2.03,15.07,34.7,777.00,1021.3
2020-10-10,12:25:00,DRY,1.35,15.05,35.0,777.00,1024.4
2020-10-10,12:30:00,DRY,1.27,15.13,34.7,776.33,1027.5
2020-10-10,12:35:00,DRY,0.95,15.30,34.0,776.50,1030.9
2020-10-10,12:40:00,DRY,1.47,15.67,34.7,776.00,1030.0
2020-10-10,12:45:00,DRY,1.35,15.70,35.5,776.00,1031.3
2020-10-10,12:50:00,DRY,1.43,15.50,35.7,776.00,1033.0
2020-10-10,12:55:00,DRY,1.50,15.40,36.5,776.00,1033.7
2020-10-10,13:00:00,DRY,1.40,15.70,36.3,776.00,1033.5
2020-10-10,13:05:00,DRY,1.60,15.75,33.5,776.00,1034.0
2020-10-10,13:10:00,DRY,2.10,15.43,33.7,776.00,1034.5
2020-10-10,13:15:00,DRY,1.40,15.15,35.5,776.00,1031.3
2020-10-10,13:20:00,DRY,2.27,15.60,33.3,776.00,1027.2
2020-10-10,13:25:00,DRY,1.40,15.45,37.0,776.00,1022.9
2020-10-10,13:30:00,DRY,0.50,15.10,38.0,776.00,1020.1
2020-10-10,13:35:00,DRY,1.10,15.80,42.0,776.00,1015.2
2020-10-10,13:40:00,DRY,1.50,15.87,44.0,776.00,1006.3
2020-10-10,13:45:00,DRY,2.90,15.25,50.0,776.00,1000.9